Location: Davie Elementary School
(37.4576°N, 89.2470°W)
Time: 01:11:04
(UTC+00:00)

Daily predictions for brighter satellites

Satellite Brightness Start Highest point End
(mag) Time Altitude Azimuth Time Altitude Azimuth Time Altitude Azimuth
Resurs 01 Rocket 3.0 01:41:35 10° ESE 01:45:07 24° ENE 01:48:41 10° NNE
STARLINK-1417 2.5 01:44:10 10° WSW 01:46:12 57° NW 01:48:14 10° NE
STARLINK-1413 2.5 01:44:11 10° WSW 01:46:13 57° NW 01:48:15 10° NE
STARLINK-1402 2.5 01:44:11 10° WSW 01:46:13 57° NW 01:48:15 10° NE
STARLINK-1419 2.5 01:44:13 10° WSW 01:46:15 57° NW 01:48:15 10° NE
SL-4 R/B 3.7 01:44:18 10° WNW 01:46:15 17° WSW 01:48:05 10° SSW
STARLINK-1125 4.3 01:42:17 10° WNW 01:46:17 49° SW 01:50:16 10° SSE
STARLINK-1422 2.5 01:44:18 10° WSW 01:46:20 57° NW 01:48:21 10° NE
STARLINK-1453 2.5 01:44:18 10° WSW 01:46:21 57° NW 01:48:23 10° NE
STARLINK-1398 2.5 01:44:20 10° WSW 01:46:24 57° NW 01:48:26 10° NE
STARLINK-1420 2.5 01:44:23 10° WSW 01:46:25 57° NW 01:48:26 10° NE
STARLINK-1440 2.5 01:44:25 10° WSW 01:46:27 57° NW 01:48:29 10° NE
STARLINK-1460 2.5 01:44:26 10° WSW 01:46:27 57° NW 01:48:29 10° NE
STARLINK-1436 (VISORSAT) 2.6 01:44:26 10° WSW 01:46:29 57° NW 01:48:31 10° NE
STARLINK-1410 2.5 01:44:29 10° WSW 01:46:31 56° NW 01:48:33 10° NE
STARLINK-1423 2.5 01:44:31 10° WSW 01:46:32 56° NW 01:48:32 10° NE
STARLINK-1400 2.5 01:44:30 10° WSW 01:46:32 56° NW 01:48:33 10° NE
STARLINK-1421 2.5 01:44:31 10° WSW 01:46:32 56° NW 01:48:33 10° NE
STARLINK-1454 2.6 01:44:32 10° WSW 01:46:34 56° NW 01:48:35 10° NE
STARLINK-1458 2.6 01:44:35 10° WSW 01:46:37 56° NW 01:48:38 10° NE
STARLINK-1445 2.6 01:44:37 10° WSW 01:46:40 56° NW 01:48:42 10° NE
STARLINK-1407 2.6 01:44:38 10° WSW 01:46:41 56° NW 01:48:43 10° NE
STARLINK-1446 2.6 01:44:39 10° WSW 01:46:42 56° NW 01:48:44 10° NE
STARLINK-1405 2.5 01:44:43 10° WSW 01:46:42 55° NW 01:48:41 10° NE
STARLINK-1370 2.6 01:44:41 10° WSW 01:46:44 56° NW 01:48:46 10° NE
STARLINK-1456 2.6 01:44:44 10° WSW 01:46:46 56° NW 01:48:47 10° NE
STARLINK-1439 2.5 01:44:46 10° WSW 01:46:46 55° NW 01:48:45 10° NE
STARLINK-1409 2.6 01:44:44 10° WSW 01:46:46 56° NW 01:48:47 10° NE
STARLINK-1457 2.6 01:44:44 10° WSW 01:46:47 56° NW 01:48:47 10° NE
STARLINK-1451 2.6 01:44:45 10° WSW 01:46:47 56° NW 01:48:47 10° NE
STARLINK-1447 2.6 01:44:45 10° WSW 01:46:47 56° NW 01:48:49 10° NE
STARLINK-1455 2.6 01:44:45 10° WSW 01:46:47 56° NW 01:48:49 10° NE
STARLINK-1437 2.6 01:44:47 10° WSW 01:46:49 56° NW 01:48:50 10° NE
STARLINK-1441 2.6 01:44:47 10° WSW 01:46:50 56° NW 01:48:52 10° NE
STARLINK-1443 2.6 01:44:50 10° WSW 01:46:53 56° NW 01:48:55 10° NE
STARLINK-1351 2.6 01:44:52 10° WSW 01:46:54 55° NW 01:48:56 10° NE
STARLINK-1418 2.6 01:44:52 10° WSW 01:46:54 55° NW 01:48:56 10° NE
STARLINK-1403 2.6 01:44:52 10° WSW 01:46:54 56° NW 01:48:57 10° NE
STARLINK-1434 2.6 01:44:52 10° WSW 01:46:55 56° NW 01:48:57 10° NE
STARLINK-1442 2.6 01:44:54 10° WSW 01:46:56 55° NW 01:48:58 10° NE
STARLINK-1448 2.6 01:44:56 10° WSW 01:46:58 55° NW 01:48:59 10° NE
STARLINK-1433 2.6 01:44:56 10° WSW 01:46:58 55° NW 01:48:59 10° NE
STARLINK-1449 2.6 01:44:59 10° WSW 01:47:01 55° NW 01:49:02 10° NE
STARLINK-1438 2.6 01:45:02 10° WSW 01:47:04 55° NW 01:49:04 10° NE
STARLINK-1411 2.6 01:45:10 10° WSW 01:47:11 55° NW 01:49:13 10° NE
STARLINK-1412 2.6 01:45:09 10° WSW 01:47:11 55° NW 01:49:12 10° NE
Meteor 1-12 Rocket 4.4 01:42:46 10° N 01:48:25 64° E 01:54:08 10° SSE
Cosmos 1975 4.0 01:45:08 10° NNW 01:48:59 46° W 01:52:47 10° SSW
Abrixas rocket 2.3 01:46:14 10° NW 01:49:08 56° NNE 01:52:01 10° ESE
Cosmos 2151 Rocket 4.1 01:45:08 10° N 01:49:29 44° E 01:53:46 10° SSE
STARLINK-1109 4.5 01:47:18 10° WNW 01:51:15 44° SW 01:55:10 10° SSE
BREEZE-M DEB 1.6 01:49:25 10° SW 01:51:33 59° SE 01:54:07 10° ENE
Resurs 1-3 4.0 01:52:04 10° SE 01:56:15 46° ENE 02:00:28 10° N
MOS 1 Rocket 3.1 01:51:58 10° N 01:56:15 85° WNW 02:00:33 10° SSW
Ariane Rocket 3.6 01:51:43 10° S 01:56:43 60° WSW 02:01:46 10° NNW
Cosmos 304 Rocket 3.9 01:52:26 10° SSW 01:57:13 85° WNW 02:02:02 10° NNE
Cosmos 1378 Rocket 4.2 01:53:39 10° SSE 01:57:39 35° E 02:01:38 10° NNE
Cosmos 1674 Rocket 3.8 01:53:55 10° SSE 01:58:07 49° E 02:02:23 10° NNE
STARLINK-1097 4.4 01:54:35 10° NW 01:58:34 43° NE 02:02:30 10° ESE
FREGAT/IRIS 3.7 01:56:56 10° S 01:59:26 38° W 02:01:57 10° NNW
FALCON 9 DEB 3.5 01:56:28 10° SSW 01:59:40 39° SE 02:02:54 10° ENE
SJ-6B 2.9 01:56:34 10° S 02:00:16 71° W 02:04:00 10° NNW
Cosmos 1110 Rocket 3.9 01:56:03 10° S 02:01:12 73° ESE 02:06:21 10° NNE
Cosmos 1741 Rocket 4.0 01:56:32 10° NNW 02:01:46 75° ENE 02:06:58 10° SSE
MetOp-A 4.2 01:56:37 10° SSE 02:01:56 73° ENE 02:07:18 10° N
STARLINK-1099 4.3 01:59:31 10° NW 02:03:32 47° NE 02:07:17 11° ESE
Cosmos 1066 Rocket 4.3 02:02:17 10° SSE 02:07:27 50° E 02:12:36 10° NNE
Cosmos 1850 Rocket 4.1 02:02:35 10° NNW 02:07:58 89° ENE 02:13:17 10° SSE
STARLINK-1104 4.1 02:04:30 10° NW 02:08:32 51° NE 02:12:05 13° ESE
Meteor 1-23 Rocket 4.3 02:04:32 10° S 02:10:05 57° E 02:15:34 10° NNE
DMSP B5D2-2 4.2 02:05:11 10° N 02:10:29 83° WNW 02:15:44 10° SSW
GPS 2-04 Rocket1 3.6 02:08:05 10° W 02:11:04 28° SSW 02:13:23 14° SE
Cosmos 1331 Rocket 3.9 02:07:37 10° SSW 02:12:45 84° ESE 02:17:57 10° NNE
STARLINK-1144 4.0 02:09:26 10° NW 02:13:31 57° NE 02:16:51 15° ESE
Intercosmos 24 4.0 02:10:39 10° N 02:14:23 81° E 02:19:14 10° S
Cosmos 2279 Rocket 4.0 02:08:31 10° N 02:14:46 84° E 02:20:57 10° S
STARLINK-1103 3.8 02:14:24 10° NW 02:18:31 62° NE 02:21:38 16° ESE
STARLINK-1369 4.4 02:18:45 10° S 02:22:08 26° SE 02:25:31 10° ENE
STARLINK-1101 3.7 02:19:22 10° NW 02:23:30 69° NE 02:26:26 18° ESE
USA 186 4.3 02:22:31 10° SW 02:24:07 14° W 02:25:48 10° WNW
Cosmos 1975 Rocket 4.3 02:22:09 17° SE 02:24:16 23° E 02:27:43 10° NE
SL-8 R/B 3.9 02:20:02 10° NW 02:24:49 69° NNE 02:28:30 17° ESE
CENTAUR R/B 4.2 02:18:12 10° NNW 02:25:27 34° NE 02:32:42 12° ESE
STARLINK-1372 4.3 02:22:45 10° S 02:26:13 29° SE 02:29:43 10° ENE
Cosmos 1302 Rocket 4.1 02:22:04 10° S 02:27:14 57° ESE 02:32:25 10° NNE
STARLINK-1102 3.6 02:24:20 10° NW 02:28:28 76° NE 02:31:12 20° SE
STARLINK-1378 4.2 02:27:22 10° SSW 02:30:58 32° SE 02:34:33 10° ENE
STARLINK-29 4.5 02:28:10 10° WSW 02:31:14 40° NW 02:34:18 10° NE
SPOT 3 Rocket 3.8 02:26:18 10° S 02:31:25 69° WSW 02:36:35 10° NNW
Cosmos 292 Rocket 4.4 02:28:23 13° SSE 02:32:14 36° ESE 02:36:40 10° NE
STARLINK-1111 3.6 02:29:19 10° NW 02:33:28 84° NE 02:36:01 23° SE
Cosmos 1242 Rocket 4.4 02:34:23 16° E 02:34:33 16° E 02:36:51 10° NE
SL-4 R/B 3.8 02:30:52 10° WSW 02:35:14 41° NNW 02:39:49 10° NE
COSMOS 2455 3.9 02:32:32 17° SE 02:35:24 25° ESE 02:40:08 10° NE
STARLINK-1379 4.1 02:31:45 10° SSW 02:35:26 35° SE 02:39:08 10° ENE
deb Kosmos-1763 4.4 02:32:31 10° NNW 02:36:03 59° WSW 02:38:41 17° S
H-2A R/B 4.5 02:34:25 10° SW 02:38:01 19° W 02:41:43 10° NW
STARLINK-1073 3.6 02:34:17 10° NW 02:38:26 87° SW 02:40:47 25° SE
CZ-2C R/B 3.7 02:33:44 10° N 02:39:08 49° WNW 02:44:27 10° SW
STARLINK-1329 3.9 02:35:30 10° SSW 02:39:15 38° SE 02:43:01 10° ENE
ASTRO E2 4.3 02:37:05 10° WSW 02:39:59 19° SSW 02:41:02 18° S
Cosmos 2263 4.4 02:34:50 10° S 02:40:10 47° ESE 02:45:31 10° NE
BREEZE-M DEB (TANK) 2.4 02:39:34 10° SW 02:41:57 67° SE 02:47:28 10° NE
STARLINK-1121 3.6 02:39:16 10° NW 02:43:24 79° SW 02:45:34 27° SE
STARLINK-1362 3.8 02:39:57 10° SSW 02:43:46 43° SE 02:47:36 10° ENE
Cosmos 1943 Rocket 2.4 02:39:57 10° SSW 02:45:28 75° WNW 02:51:05 10° NNE
STARLINK-1320 2.7 02:42:33 10° SW 02:45:37 63° SE 02:48:42 10° NE
STARLINK-1322 2.7 02:42:54 10° SW 02:45:58 63° SE 02:49:03 10° NE
STARLINK-1324 2.7 02:43:13 10° SW 02:46:17 64° SE 02:49:22 10° NE
STARLINK-1294 2.7 02:43:32 10° SW 02:46:36 64° SE 02:49:40 10° NE
STARLINK-1261 2.7 02:43:54 10° SW 02:46:58 65° SE 02:50:04 10° NE
STARLINK-1325 2.7 02:44:15 10° SW 02:47:19 66° SE 02:50:25 10° NE
STARLINK-1333 2.7 02:44:37 10° SW 02:47:41 67° SE 02:50:47 10° NE
STARLINK-1334 2.7 02:44:54 10° SW 02:47:59 67° SE 02:51:04 10° NE
STARLINK-1373 3.7 02:44:22 10° SSW 02:48:13 47° SE 02:52:06 10° ENE
STARLINK-1326 2.7 02:45:13 10° SW 02:48:17 68° SE 02:51:23 10° NE
STARLINK-1106 3.7 02:44:15 10° NW 02:48:22 71° SW 02:50:20 29° SSE
STARLINK-1323 2.7 02:45:36 10° SW 02:48:40 69° SE 02:51:47 10° NE
STARLINK-1349 2.7 02:45:53 10° SW 02:48:58 69° SE 02:52:04 10° NE
STARLINK-1336 2.7 02:46:13 10° SW 02:49:17 70° SE 02:52:23 10° NE
STARLINK-1331 2.7 02:46:35 10° SW 02:49:40 71° SE 02:52:47 10° NE
STARLINK-1344 2.7 02:46:54 10° SW 02:49:59 71° SE 02:53:05 10° NE
STARLINK-1343 2.7 02:47:16 10° SW 02:50:21 72° SE 02:53:28 10° NE
STARLINK-1346 2.7 02:47:33 10° SW 02:50:38 73° SE 02:53:46 10° NE
STARLINK-1328 2.7 02:47:59 10° SW 02:51:04 74° SE 02:54:11 10° NE
STARLINK-1354 2.7 02:48:16 10° SW 02:51:22 74° SE 02:54:28 10° NE
STARLINK-1347 2.7 02:48:33 10° SW 02:51:39 75° SE 02:54:46 10° NE
Cosmos 1092 Rocket 4.0 02:46:49 16° SSE 02:51:43 60° E 02:57:45 10° NNE
STARLINK-1357 2.7 02:48:59 10° SW 02:52:05 76° SE 02:55:11 10° NE
STARLINK-1335 2.7 02:49:16 10° SW 02:52:22 77° SE 02:55:29 10° NE
STARLINK-1327 2.7 02:49:38 10° SW 02:52:43 77° SE 02:55:49 10° NE
STARLINK-1390 3.6 02:48:57 10° SSW 02:52:53 52° SE 02:56:49 10° ENE
STARLINK-1340 2.7 02:49:55 10° SW 02:53:00 78° SE 02:56:07 10° NE
STARLINK-1112 3.8 02:49:15 10° NW 02:53:22 64° SW 02:55:08 31° SSE
STARLINK-1356 2.7 02:50:18 10° SW 02:53:23 79° SE 02:56:31 10° NE
STARLINK-1345 2.7 02:50:36 10° SW 02:53:42 79° SE 02:56:49 10° NE
Landsat 7 4.1 02:51:22 27° SE 02:53:44 51° ENE 02:58:21 10° N
STARLINK-1355 2.7 02:50:58 10° SW 02:54:03 80° SE 02:57:11 10° NE
STARLINK-1321 2.7 02:51:18 10° SW 02:54:25 81° SE 02:57:31 10° NE
NOSS 3-4 (A) 3.3 02:48:52 10° SSW 02:54:39 62° ESE 03:00:42 10° NE
NOSS 3-4 (C) 3.3 02:48:58 10° SSW 02:54:45 62° ESE 03:00:48 10° NE
STARLINK-1358 2.7 02:51:41 10° SW 02:54:47 82° SE 02:57:55 10° NE
STARLINK-1332 2.7 02:51:59 10° SW 02:55:04 83° SE 02:58:12 10° NE
STARLINK-1348 2.7 02:52:19 10° SW 02:55:25 83° SE 02:58:33 10° NE
STARLINK-1330 2.7 02:52:38 10° SW 02:55:44 84° SE 02:58:52 10° NE
STARLINK-1363 2.7 02:52:59 10° SW 02:56:05 85° SE 02:59:11 10° NE
STARLINK-1337 2.7 02:53:21 10° SW 02:56:27 86° SE 02:59:34 10° NE
ATLAS CENTAUR R/B 1.5 02:52:04 10° SSW 02:56:31 59° ESE 03:00:41 10° NE
STARLINK-1342 2.7 02:53:40 10° SW 02:56:46 86° SE 02:59:53 10° NE
Okean 1 Rocket 3.2 02:52:24 10° N 02:56:50 73° W 02:59:40 21° S
Cosmos 1455 Rocket 4.1 02:53:13 10° NNE 02:56:58 28° ENE 02:57:57 25° E
STARLINK-1364 2.7 02:54:00 10° SW 02:57:06 87° SE 03:00:13 10° NE
IGS 5A 3.7 02:55:29 31° SE 02:57:09 53° ENE 03:01:12 10° N
Okean 2 3.4 02:55:04 27° SSE 02:57:12 64° E 03:01:19 10° NNE
STARLINK-1376 2.7 02:54:20 10° SW 02:57:26 88° SE 03:00:34 10° NE
STARLINK-1360 2.7 02:54:40 10° SW 02:57:47 89° SE 03:00:54 10° NE
Lacrosse 5 4.4 02:56:38 10° W 02:58:03 11° WSW 02:59:28 10° SW
STARLINK-1361 2.7 02:55:01 10° SW 02:58:08 89° E 03:01:14 10° NE
STARLINK-1128 3.9 02:54:14 10° NW 02:58:18 57° SW 02:59:54 33° SSE
STARLINK-1367 2.7 02:55:19 10° SW 02:58:24 90° WSW 03:01:33 10° NE
STARLINK-1366 2.7 02:55:40 10° SW 02:58:46 89° NW 03:01:53 10° NE
STARLINK-1365 3.5 02:54:51 10° SW 02:58:51 62° SE 03:02:53 10° NE
ERS-1 Rocket 3.8 02:59:07 26° ESE 03:01:07 36° ENE 03:05:42 10° N
STARLINK-1113 4.0 02:59:16 10° WNW 03:03:17 51° SW 03:04:42 34° S
Cosmos 1656 Rocket 3.8 03:00:25 19° S 03:04:14 53° ESE 03:09:39 10° NNE
Cosmos 1766 3.2 03:02:33 10° N 03:06:34 76° E 03:07:53 40° SSE
STARLINK-1119 4.2 03:04:16 10° WNW 03:08:14 45° SW 03:09:28 34° S
STARLINK-1338 3.3 03:04:47 10° SW 03:08:44 76° SE 03:12:43 10° NE
STARLINK-1114 4.4 03:09:18 10° WNW 03:13:12 41° SW 03:14:16 34° S
Meteor 2-13 Rocket 4.5 03:12:39 28° SSE 03:15:56 62° E 03:22:01 10° NNE
Cosmos 968 Rocket 4.1 03:11:33 10° N 03:16:25 42° ENE 03:17:59 33° ESE
STARLINK-1371 3.4 03:12:55 10° SW 03:16:52 90° N 03:20:49 10° NE
MetOp-B 4.4 03:13:45 24° S 03:17:01 64° WSW 03:22:20 10° NNW
Meteor 1-21 4.2 03:18:00 32° SSE 03:20:34 64° E 03:26:06 10° NNE
STARLINK-1341 3.5 03:17:18 10° SW 03:21:15 82° NW 03:25:13 10° NE
Resurs 01 Rocket 3.3 03:18:10 13° SSW 03:21:28 28° W 03:25:19 10° NW
Cosmos 2084 4.1 03:22:08 37° E 03:22:08 37° E 03:25:40 10° NE
Cosmos 2369 Rocket 3.0 03:16:28 10° SW 03:21:59 52° WNW 03:27:30 10° NNE
ATLAS 2AS CENTAUR R/B 3.1 03:14:23 10° SSW 03:22:18 83° WNW 03:30:20 10° NNE
USA 245 3.2 03:23:08 45° WNW 03:23:08 45° WNW 03:25:09 10° NNW
Milstar 3 Cent rocket 4.0 03:16:16 10° SW 03:23:50 48° SSE 03:39:36 10° E
Cosmos 1867 4.4 03:19:40 10° NNW 03:24:49 40° NE 03:26:48 30° E
STARLINK-1374 3.6 03:21:56 10° SW 03:25:53 75° NW 03:29:53 10° NE
NOSS 3-2 (A) 4.2 03:20:03 10° NW 03:27:51 76° WSW 03:32:28 31° SSE
Cosmos 2026 Rocket 4.0 03:25:23 25° S 03:29:18 89° E 03:35:42 10° N
STARLINK-1339 3.7 03:25:57 10° SW 03:29:53 69° NW 03:33:50 10° NE
Cosmos 1726 4.4 03:31:11 10° NE 03:32:42 14° ENE 03:32:42 14° ENE
Cosmos 1544 Rocket 3.7 03:30:20 10° N 03:34:36 53° E 03:34:57 52° E
STARLINK-1377 3.9 03:30:40 10° WSW 03:34:37 62° NW 03:38:35 10° NE
SPOT 5 3.1 03:34:48 46° SE 03:36:21 71° ENE 03:41:42 10° N
STARLINK-1353 4.1 03:35:03 10° WSW 03:38:58 57° NW 03:42:55 10° NE
Terra 2.1 03:38:15 46° ESE 03:39:01 51° ENE 03:43:38 10° N
Spot 2 Rocket 4.3 03:38:20 27° SSW 03:40:38 45° W 03:45:28 10° NNW
USA 238 DEB 4.1 03:35:45 10° NW 03:42:54 60° WSW 03:46:14 34° S
USA 238 4.1 03:35:51 10° NW 03:43:01 61° WSW 03:46:20 34° S
STARLINK-1375 4.3 03:39:29 10° WSW 03:43:23 52° NW 03:47:18 10° NE
STARLINK-1235 3.7 03:40:15 10° NW 03:43:23 52° NNE 03:43:23 52° NNE
Cosmos 1470 2.9 03:41:01 10° N 03:44:32 57° NE 03:44:32 57° NE
Cosmos 1553 Rocket 4.1 03:39:00 10° N 03:45:07 58° E 03:46:44 44° SE
Cosmos 1733 4.2 03:43:39 10° NNW 03:47:11 38° W 03:47:46 36° WSW
STARLINK-1212 4.2 03:44:12 10° NW 03:46:32 37° N 03:46:32 37° N
STARLINK-1350 4.5 03:43:52 10° WSW 03:47:45 48° NW 03:51:38 10° NE
SL-27 R/B 3.5 03:44:34 10° NW 03:47:48 37° W 03:47:48 37° W
STARLINK-1105 4.2 03:45:18 10° NW 03:47:44 39° N 03:47:44 39° N
STARLINK-1247 4.2 03:46:25 10° NW 03:48:54 40° N 03:48:54 40° N
STARLINK-1227 4.2 03:47:05 10° NW 03:49:31 40° N 03:49:31 40° N
COSMOS 2487 4.1 03:48:02 10° N 03:50:14 25° NE 03:50:14 25° NE
STARLINK-1226 4.2 03:48:16 10° NW 03:50:39 39° N 03:50:39 39° N
STARLINK-1215 4.2 03:49:24 10° NW 03:51:47 40° N 03:51:47 40° N
STARLINK-1217 4.3 03:51:44 10° NW 03:54:03 39° NNW 03:54:03 39° NNW
Cosmos 1340 Rocket 4.3 03:51:37 10° NNE 03:54:34 27° ENE 03:54:34 27° ENE
STARLINK-1229 4.3 03:52:54 10° NW 03:55:09 38° NNW 03:55:09 38° NNW
STARLINK-1270 4.4 03:53:38 10° NW 03:55:46 36° NNW 03:55:46 36° NNW
VEP-3 4.4 03:52:30 10° SW 04:06:30 - ESE 03:53:40 15° SSW
Cosmos 1025 Rocket 2.8 03:58:03 89° ESE 03:58:03 89° ESE 04:02:23 10° N
STARLINK-1189 4.4 03:56:30 10° NW 03:58:40 37° NNW 03:58:40 37° NNW
STARLINK-1188 4.5 03:57:45 10° NW 03:59:52 36° NNW 03:59:52 36° NNW
Cosmos 2266 Rocket 4.2 04:01:24 46° ESE 04:02:07 48° E 04:07:54 10° NNE
Cosmos 1503 Rocket 3.9 03:56:52 10° NNW 04:02:14 81° ENE 04:02:59 66° SE
Cosmos 1271 Rocket 3.4 04:03:20 48° W 04:03:33 49° W 04:07:23 10° N
RESURS DK-1 3.1 04:05:59 45° NE 04:05:59 45° NE 04:08:59 10° NNE
SeaSat 1 4.2 04:04:56 10° NE 04:06:53 19° ENE 04:06:53 19° ENE
Cosmos 1242 Rocket 4.5 04:08:21 23° W 04:09:10 25° WNW 04:12:15 10° NNW
Meteor 2-10 4.0 04:04:37 10° N 04:09:37 62° E 04:09:49 61° E
Cosmos 1655 Rocket 3.9 04:08:50 55° S 04:10:19 81° E 04:16:37 10° N
Cosmos 1953 3.2 04:07:08 10° N 04:10:06 41° NE 04:10:06 41° NE
Cosmos 1707 3.5 04:15:54 50° WNW 04:15:54 50° WNW 04:19:21 10° N
ATLAS 3B CENTAUR R/B 3.7 04:03:00 10° W 04:16:29 41° SSW 04:17:40 39° S
CENTAUR R/B 3.3 04:08:31 10° NW 04:16:47 67° WSW 04:19:52 43° S
COSMOS 2455 3.7 04:15:31 12° SW 04:20:57 48° WNW 04:26:47 10° NNE
Cosmos 1354 Rocket 4.0 04:19:33 10° NNW 04:24:51 71° WSW 04:25:09 69° SW
ATLAS 3B R/B 2.8 04:18:27 10° NNW 04:25:18 72° ENE 04:27:03 52° ESE
Cosmos 1758 4.5 04:26:24 10° NNW 04:29:47 38° WNW 04:29:47 38° WNW
ATLAS CENTAUR R/B 4.4 04:33:10 10° W 04:35:41 15° NW 04:38:09 10° NNW
Cosmos 2297 Rocket 4.0 04:32:42 10° N 04:36:43 19° NE 04:38:20 17° ENE
Meteor 2-19 Rocket 4.4 04:38:54 62° SSW 04:39:55 77° W 04:46:03 10° N
CZ-4C R/B 3.7 04:47:00 22° ENE 04:47:00 22° ENE 04:49:24 10° NE
SJ 16-02 3.9 04:48:27 10° NE 04:50:19 12° ENE 04:50:26 12° ENE
Cosmos 2098 Rocket 4.3 04:54:00 62° S 04:55:26 89° W 05:02:56 10° N
Cosmos 1697 Rocket 4.4 04:59:44 20° ENE 04:59:44 20° ENE 05:02:26 10° NE
Meteor 1-16 Rocket 4.4 04:58:30 10° NNW 05:03:34 56° W 05:03:34 56° W
Cosmos 1809 Rocket 4.3 05:04:25 75° ESE 05:04:31 75° E 05:10:42 10° N
Meteor 2-15 4.4 04:59:12 10° NNW 05:05:17 71° W 05:05:36 69° WSW
Exosat Rocket 4.2 04:58:25 10° NNW 05:06:14 62° WSW 05:06:47 60° SW
Cosmos 1726 4.4 05:05:26 10° NNW 05:07:13 21° NW 05:07:13 21° NW
Timation 2 Rocket 3.7 05:03:20 10° NNW 05:09:33 88° ENE 05:09:37 87° ESE
Cosmos 2227 Rocket 3.3 05:09:46 10° N 05:14:52 33° ENE 05:15:33 32° ENE
BREEZE-M DEB (TANK) 3.9 05:08:21 10° WSW 05:14:53 35° NW 05:17:44 10° NNE
Terra 4.1 05:17:08 15° W 05:17:08 15° W 05:19:37 10° WNW
Nadezhda 2 Rocket 4.3 05:20:44 85° WSW 05:20:49 86° W 05:27:00 10° N
Cosmos 1777 Rocket 4.5 05:16:26 10° NNW 05:20:48 53° WNW 05:20:48 53° WNW
Cosmos 2315 Rocket 4.1 05:19:36 10° NNW 05:25:42 62° W 05:25:55 61° WSW
Meteor 2-5 Rocket 4.2 05:36:00 50° WNW 05:36:00 50° WNW 05:41:30 10° N
Cosmos 1626 4.4 05:38:59 24° NNW 05:38:59 24° NNW 05:40:39 10° N
Meteor 2-16 Rocket 4.4 05:39:30 78° ENE 05:39:30 78° ENE 05:45:28 10° N
Cosmos 2058 Rocket 4.2 05:35:57 10° N 05:38:59 42° NNW 05:38:59 42° NNW
ALOS 2 3.8 05:44:08 39° NNW 05:44:08 39° NNW 05:46:59 10° NNW
SeaSat 1 3.4 05:41:54 10° N 05:46:29 40° WNW 05:46:39 40° WNW
Cosmos 468 Rocket 4.4 05:54:41 59° NNE 05:54:41 59° NNE 05:58:49 10° NNE
SL-08 ROCKET BODY 4.3 05:56:06 73° ENE 05:56:06 73° ENE 06:01:34 10° N
Cosmos 1980 Rocket 3.2 05:57:04 34° E 05:57:04 34° E 06:01:09 10° NE
Lacrosse 4 Rocket 3.1 05:53:13 10° N 05:56:09 30° NNE 05:56:09 30° NNE
FALCON 9 R/B 3.7 06:03:08 37° ESE 06:03:08 37° ESE 06:11:18 10° ESE
Cosmos 2369 3.8 06:07:49 72° NNE 06:07:49 72° NNE 06:12:53 10° NNE
Cosmos 1937 Rocket 4.2 06:02:37 10° N 06:07:35 46° ENE 06:07:35 46° ENE
Cosmos 1745 Rocket 3.9 06:15:24 72° W 06:15:24 72° W 06:21:30 10° N
ATLAS 3B R/B 4.3 06:10:34 10° WNW 06:14:17 20° W 06:14:17 20° W
Cosmos 1898 Rocket 3.8 06:11:38 10° NNW 06:16:14 65° N 06:16:14 65° N
Cosmos 2297 Rocket 2.7 06:15:37 10° NNW 06:20:07 50° WNW 06:20:07 50° WNW
Cosmos 2360 4.2 06:23:44 77° NNE 06:23:44 77° NNE 06:29:00 10° NNE
Cosmos 2219 4.1 06:20:10 10° NW 06:24:10 36° WNW 06:24:10 36° WNW
Cosmos 990 Rocket 4.4 06:20:26 10° NNW 06:24:43 59° NNW 06:24:43 59° NNW
Cosmos 1814 Rocket 4.3 06:29:50 62° NE 06:29:50 62° NE 06:34:24 10° NNE
SJ 16-02 2.9 06:24:55 10° NNW 06:27:24 31° NW 06:27:24 31° NW
CZ-4C R/B 3.3 06:32:08 30° WNW 06:33:03 32° NW 06:38:12 10° NNE
BREEZE M DEB (TANK) 4.3 06:31:41 57° S 06:33:15 68° SE 07:01:09 10° NE
Cosmos 2322 Rocket 4.1 06:35:08 18° E 06:35:08 18° E 06:38:45 10° ENE
Cosmos 2082 3.7 06:30:17 10° NNW 06:35:31 77° NNW 06:35:31 77° NNW
Cosmos 841 Rocket 3.7 06:39:02 67° NNW 06:39:02 67° NNW 06:43:38 10° NNE
Cosmos 1697 Rocket 3.3 06:41:27 44° WNW 06:41:42 44° WNW 06:47:08 10° N
Cosmos 2278 3.8 06:43:42 68° WNW 06:43:42 68° WNW 06:49:14 10° NNE
Cosmos 1570 Rocket 4.4 06:46:31 56° NW 06:46:31 56° NW 06:51:22 10° N
Resurs 1-4 Rocket 3.4 06:43:24 10° NE 06:47:57 28° E 06:48:08 28° E
SL-19 R/B 4.3 06:45:08 10° NNE 06:50:54 74° ESE 06:51:07 73° SE
Cosmos 2181 Rocket 4.1 06:49:48 10° N 06:56:16 74° E 06:57:15 63° SE
Cosmos 2227 Rocket 3.5 06:53:52 10° NW 06:57:20 28° WNW 06:57:20 28° WNW
Cosmos 1953 Rocket 4.2 07:02:11 53° N 07:02:11 53° N 07:05:36 10° N
Cosmos-2242 3.9 06:58:45 10° N 07:01:42 44° NNW 07:01:42 44° NNW
Cosmos 1709 Rocket 4.2 07:03:41 52° W 07:04:00 53° W 07:10:02 10° N
Gblst 52 Del rocket 4.3 07:04:38 69° WSW 07:05:26 83° NW 07:12:23 10° NE
IRAS Rocket 4.1 07:07:06 74° SE 07:07:32 81° ENE 07:13:04 10° NNW
SL-16 R/B 2.7 07:10:10 45° ESE 07:10:29 46° ESE 07:15:53 10° NE
Cosmos 1241 Rocket 4.3 07:11:44 69° SSE 07:12:16 73° ESE 07:18:28 10° NNE
GP-B 3.6 07:08:52 10° N 07:12:45 56° ENE 07:12:45 56° ENE
SL-16 R/B 3.2 07:10:45 30° SE 07:13:26 49° ENE 07:19:21 10° N
Helios 1B rocket 4.4 07:13:14 10° NNW 07:15:40 21° NW 07:15:40 21° NW
Cosmos 489 Rocket 4.4 07:16:05 63° WSW 07:16:50 69° WNW 07:23:06 10° NNE
STARLINK-1305 4.5 07:19:34 48° NE 07:19:34 48° NE 07:22:37 10° NE
STARLINK-1306 4.4 07:20:43 51° NNE 07:20:43 51° NNE 07:23:59 10° NE
CZ-2D R/B 2.3 07:14:49 10° NNE 07:19:56 55° E 07:20:19 54° ESE
STARLINK-1262 4.3 07:24:22 52° NNE 07:24:22 52° NNE 07:27:37 10° NE
STARLINK-1300 4.2 07:29:09 54° NNE 07:29:09 54° NNE 07:32:35 10° NE
Cosmos 2285 Rocket 4.4 07:25:17 10° NNW 07:31:12 45° W 07:31:12 45° W
Cosmos 2360 Rocket 3.5 07:31:03 26° SE 07:32:25 29° ESE 07:37:10 10° NE
STARLINK-1295 4.2 07:33:55 55° N 07:33:55 55° N 07:37:31 10° NE
SL-4 R/B 3.9 07:33:48 10° NW 07:38:15 35° NNE 07:42:32 10° E
STARLINK-1287 4.2 07:38:42 53° NNW 07:38:42 53° NNW 07:42:29 10° NE
USA 215 3.1 07:37:06 38° SSE 07:39:49 69° SW 07:46:21 10° NW
Cosmos 1980 Rocket 3.5 07:38:49 26° W 07:40:02 28° WNW 07:44:51 10° N
Cosmos 1892 3.9 07:41:51 36° E 07:41:51 36° E 07:45:13 10° NNE
CZ-4B R/B 3.7 07:38:05 10° NNE 07:43:20 67° ESE 07:44:19 55° SSE
UNK 3.6 07:45:02 76° SE 07:45:21 83° ENE 07:49:58 10° N
STARLINK-1302 4.3 07:48:16 45° NW 07:48:23 45° NW 07:52:23 10° NE
STARLINK-24 4.3 07:49:27 45° E 07:49:27 45° E 07:52:37 10° ENE
Cosmos 2074 Rocket 4.1 07:50:09 49° SW 07:51:29 59° W 07:57:41 10° N
STARLINK-81 4.4 07:54:07 39° E 07:54:07 39° E 07:56:42 10° ENE
AQUA 3.7 07:48:32 10° NNE 07:53:19 81° ESE 07:53:56 67° S
STARLINK-1273 4.5 07:53:02 40° NW 07:53:22 41° NW 07:57:19 10° NE
STARLINK-54 4.2 07:55:30 42° ENE 07:55:30 42° ENE 07:58:06 10° NE
Cosmos 1869 3.5 07:51:13 10° N 07:55:04 64° E 07:55:04 64° E
STARLINK-61 4.0 07:55:11 51° NNW 07:55:11 51° NNW 07:58:56 10° NE
STARLINK-1008 4.5 07:56:10 39° ESE 07:56:10 39° ESE 07:59:38 10° ENE
STARLINK-77 4.2 07:57:14 43° E 07:57:14 43° E 07:59:57 10° NE
ADEOS II 2.8 07:51:28 10° NNE 07:56:31 45° E 07:58:25 32° SSE
IRS-1D 3.8 07:52:47 10° NNE 07:57:58 61° E 07:59:26 44° SSE
Cosmos 2263 Rocket 2.0 07:55:04 10° NNW 08:00:40 79° WSW 08:02:25 45° S
STARLINK-1014 4.2 08:00:58 45° ESE 08:00:58 45° ESE 08:04:38 10° ENE
STARLINK-79 3.9 08:01:56 51° E 08:01:56 51° E 08:04:53 10° NE
STARLINK-78 3.8 08:03:30 55° E 08:03:30 55° E 08:06:32 10° NE
ARIANE 5 R/B 3.9 07:59:26 10° NE 08:03:48 30° E 08:06:23 19° SE
STARLINK-57 3.7 08:04:48 58° ENE 08:04:48 58° ENE 08:07:49 10° NE
Lacrosse 5 rocket 3.9 08:04:34 10° SE 08:05:02 10° ESE 08:05:43 10° ESE
STARLINK-1025 4.0 08:05:44 51° SE 08:05:44 51° SE 08:09:41 10° ENE
STARLINK-49 3.6 08:06:19 59° ENE 08:06:19 59° ENE 08:09:22 10° NE
Cosmos 1408 3.4 08:06:51 42° ESE 08:07:15 44° E 08:10:47 10° NNE
Cosmos 1076 Rocket 3.4 08:07:00 65° S 08:07:35 83° E 08:11:59 10° N
NPP 3.8 08:02:17 10° N 08:07:36 61° WNW 08:08:54 47° SW
STARLINK-27 3.5 08:08:12 65° ENE 08:08:12 65° ENE 08:11:26 10° NE
Cosmos 2151 4.5 08:06:52 23° SE 08:08:39 32° E 08:12:28 10° NNE
STARLINK-74 3.4 08:09:46 69° ENE 08:09:46 69° ENE 08:13:02 10° NE
STARLINK-1017 3.8 08:10:29 57° SE 08:10:35 57° SE 08:14:38 10° NE
Cosmos 2341 Rocket 4.3 08:07:20 29° SSE 08:10:40 66° E 08:16:55 10° NNE
STARLINK-39 3.3 08:11:20 73° ENE 08:11:20 73° ENE 08:14:40 10° NE
BREEZE M DEB (TANK) 2.9 08:11:17 56° W 08:11:57 73° SW 08:19:48 10° SE
STARLINK-31 3.3 08:12:55 78° ENE 08:12:55 78° ENE 08:16:20 10° NE
STARLINK-69 3.2 08:13:59 76° NNE 08:13:59 76° NNE 08:17:20 10° NE
STARLINK-1023 3.6 08:15:16 62° SSE 08:15:32 64° SE 08:19:38 10° NE
Cosmos 1825 3.4 08:14:43 29° SE 08:15:48 36° E 08:19:16 10° NNE
STARLINK-21 3.2 08:16:03 83° N 08:16:03 83° N 08:19:34 10° NE
STARLINK-45 3.2 08:17:45 74° NW 08:17:46 74° NW 08:21:23 10° NE
Cosmos 2322 Rocket 2.4 08:16:57 40° WSW 08:18:38 55° WNW 08:24:10 10° NNE
BREEZE-M DEB (TANK) 4.0 08:17:41 30° W 08:19:57 62° NNW 08:34:16 10° ENE
In-Cosmos 22 Rocket 4.2 08:18:09 43° SSW 08:19:57 70° W 08:25:27 10° N
STARLINK-1007 3.5 08:20:05 64° S 08:20:33 72° SE 08:24:41 10° NE
STARLINK-76 3.2 08:20:46 75° WNW 08:20:52 76° NW 08:24:29 10° NE
STARLINK-70 3.3 08:21:49 67° WNW 08:22:02 70° NW 08:25:42 10° NE
STARLINK-23 3.2 08:22:21 71° WNW 08:22:30 73° NW 08:26:08 10° NE
Iridium 2 4.4 08:19:33 10° NNW 08:22:42 38° WNW 08:22:42 38° WNW
STARLINK-32 3.2 08:23:05 71° WNW 08:23:11 71° NW 08:26:43 10° NE
STARLINK-1048 3.5 08:24:51 61° SSW 08:25:31 79° SE 08:29:39 10° NE
STARLINK-40 3.3 08:25:28 64° WNW 08:25:45 68° NW 08:29:22 10° NE
STARLINK-60 3.2 08:23:40 10° NW 08:26:50 68° NE 08:30:00 10° SE
STARLINK-44 3.3 08:26:59 60° WNW 08:27:20 65° NW 08:30:57 10° NE
Shenzhou-11 Module 3.8 08:27:17 21° N 08:27:34 21° N 08:29:34 10° NE
Resurs 1-4 Rocket 3.1 08:23:02 10° N 08:27:43 33° WNW 08:29:13 28° W
Cosmos 1125 Rocket 3.8 08:23:53 10° NNW 08:28:48 44° WSW 08:29:46 39° SW
STARLINK-37 3.5 08:28:43 52° WNW 08:29:10 57° NW 08:32:44 10° NE
SL-8 Rocket 4.2 08:25:25 22° S 08:29:33 69° E 08:35:46 10° NNE
USA 229 DEB 3.8 08:22:54 10° NW 08:30:15 69° WSW 08:37:52 10° SSE
USA 229 3.8 08:23:00 10° NW 08:30:21 70° WSW 08:37:59 10° SSE
STARLINK-1049 3.5 08:29:39 56° SW 08:30:30 88° SE 08:34:38 10° NE
STARLINK-36 3.4 08:30:07 54° W 08:30:35 60° NW 08:34:10 10° NE
NOSS 3-1 (C) 4.1 08:23:17 10° NW 08:31:05 64° WSW 08:39:48 10° SSE
STARLINK-63 3.7 08:33:07 45° WNW 08:33:43 52° NW 08:37:15 10° NE
STARLINK-35 3.5 08:33:51 48° WNW 08:34:23 54° NW 08:37:50 10° NE
Cosmos 2218 Rocket 4.4 08:29:40 18° SSE 08:34:27 62° E 08:40:45 10° NNE
SL-08 R/B 3.7 08:30:54 13° SSE 08:34:58 60° ENE 08:39:31 10° N
STARLINK-1051 3.5 08:34:24 50° SW 08:35:26 84° NW 08:39:35 10° NE
STARLINK-51 3.7 08:36:10 43° W 08:36:53 51° NW 08:40:23 10° NE
GEOS 3 Rocket 3.6 08:33:27 10° SE 08:38:36 85° NE 08:43:52 10° NNW
STARLINK-30 3.8 08:37:59 40° W 08:38:49 49° NW 08:42:20 10° NE
STARLINK-72 3.8 08:38:29 40° WNW 08:39:12 48° NW 08:42:37 10° NE
NOSS 3-1 (A) 4.1 08:31:35 10° NW 08:39:30 84° WSW 08:48:21 10° SSE
STARLINK-59 4.0 08:41:41 34° WNW 08:42:35 42° NW 08:45:56 10° NE
Cosmos 2221 3.5 08:39:30 10° NNW 08:43:16 29° W 08:43:34 29° W
Cosmos 1538 Rocket 4.3 08:40:49 24° S 08:43:59 65° ESE 08:49:19 10° NNE
Cosmos 1315 Rocket 4.0 08:41:04 10° NW 08:44:05 26° W 08:44:05 26° W
Cosmos 2237 4.3 08:42:34 31° SW 08:45:16 63° WNW 08:50:57 10° NNE
STARLINK-56 4.0 08:44:14 32° W 08:45:19 43° NW 08:48:48 10° NE
STARLINK-1028 3.7 08:43:58 38° WSW 08:45:24 69° NW 08:49:33 10° NE
STARLINK-73 4.1 08:45:48 31° W 08:46:57 41° NW 08:50:25 10° NE
STARLINK-38 4.2 08:47:22 29° W 08:48:35 40° NW 08:52:02 10° NE
STARLINK-65 4.2 08:48:56 28° W 08:50:14 39° NW 08:53:40 10° NE
STARLINK-1021 3.8 08:48:47 34° WSW 08:50:24 62° NW 08:54:32 10° NE
STARLINK-68 4.4 08:49:50 26° W 08:51:12 35° NW 08:54:34 10° NNE
STARLINK-53 4.4 08:50:33 25° W 08:51:57 36° NW 08:55:20 10° NNE
IRS-P3 4.3 08:46:54 10° N 08:52:09 59° WNW 08:54:59 27° SW
Cosmos 2058 4.2 08:51:49 24° W 08:52:35 26° WNW 08:56:07 10° NNW
STARLINK-1010 4.1 08:52:14 29° WSW 08:54:08 56° NW 08:58:19 10° NE
Cosmos 773 Rocket 4.1 08:51:33 29° SW 08:54:13 65° WNW 08:59:29 10° NNE
SL-16 R/B 3.7 08:52:02 17° W 08:54:47 24° WNW 08:59:19 10° N
Cosmos 1844 Rocket 3.2 08:49:33 10° NNW 08:55:05 59° ENE 09:00:34 10° SE
STARLINK-1019 4.0 08:53:32 30° WSW 08:55:22 56° NW 08:59:27 10° NE
STARLINK-50 4.4 08:55:04 24° W 08:56:47 38° NW 09:00:22 10° NE
SL-16 R/B 3.6 08:55:49 22° WSW 08:57:15 24° W 09:02:05 10° NW
Meteor 2-12 Rocket 4.4 08:53:34 17° S 08:58:23 86° E 09:04:28 10° N
CZ-2D R/B 3.9 08:56:14 10° NNW 08:59:30 17° WNW 09:01:38 14° W
COSMOS 2428 3.4 08:54:57 14° S 08:59:34 49° ESE 09:05:01 10° NNE
STARLINK-29 3.3 08:56:42 10° NW 08:59:52 64° NE 09:03:00 10° ESE
STARLINK-1012 4.1 08:58:20 26° WSW 09:00:22 51° NW 09:04:26 10° NE
Cosmos 1339 Rocket 4.4 08:56:29 10° N 09:02:37 87° W 09:08:49 10° S
Meteor 1-28 Rocket 3.1 09:00:23 13° SSE 09:03:38 87° ENE 09:07:23 10° N
Cosmos 1328 Rocket 4.4 09:00:43 10° N 09:04:59 49° E 09:09:11 10° SSE
STARLINK-1026 4.4 09:07:52 20° W 09:10:20 43° NW 09:14:18 10° NE
Landsat 5 4.5 09:06:55 10° SSE 09:11:18 53° ENE 09:15:40 10° N
ERS-2 2.0 09:08:12 10° SSE 09:11:51 90° S 09:15:32 10° NNW
Cosmos 2360 Rocket 3.1 09:12:49 19° WSW 09:16:14 36° WNW 09:21:23 10° N
Cosmos 1606 2.7 09:13:31 10° N 09:17:19 79° E 09:21:05 10° S
STARLINK-1052 4.4 09:15:01 19° SSW 09:17:39 44° SE 09:21:36 10° ENE
SL-4 R/B 2.5 09:13:33 10° WNW 09:18:04 45° SW 09:22:21 10° SSE
SL-24 DEB 4.5 09:13:59 10° N 09:18:26 51° W 09:21:46 17° SSW
BREEZE-M DEB (TANK) 4.3 09:17:26 10° NNW 09:19:35 22° NE 09:23:04 10° E
Cosmos 2366 rocket 4.2 09:16:20 15° SSW 09:21:23 58° W 09:27:36 10° N
STARLINK-1033 4.0 09:24:34 17° SSW 09:27:34 55° SE 09:31:37 10° NE
CZ-2C R/B 2.7 09:24:15 10° N 09:28:03 78° WNW 09:31:33 12° SSW
CZ-4B R/B 4.2 09:26:00 10° ESE 09:28:16 19° ENE 09:30:36 10° NNE
Cosmos 2333 Rocket 2.2 09:25:41 14° SSW 09:30:31 75° WNW 09:36:13 10° NNE
Cosmos 1633 3.5 09:27:38 10° SSE 09:31:05 47° E 09:34:34 10° NNE
STARLINK-1031 3.9 09:29:22 16° SSW 09:32:32 61° SE 09:36:38 10° NE
Cosmos 1408 Rocket 3.5 09:28:38 12° SSW 09:32:38 69° W 09:36:56 10° N
Cosmos 2219 Rocket 2.2 09:28:31 13° SSW 09:33:28 75° WNW 09:39:04 10° NNE
CZ-2D R/B 4.1 09:29:24 10° N 09:33:28 42° WNW 09:36:57 14° SW
STARLINK-52 2.9 09:31:58 10° NW 09:35:08 57° SW 09:38:16 10° SE
ADEOS II 3.6 09:32:00 10° NNW 09:35:50 21° WNW 09:39:21 11° WSW
Cosmos 2322 4.2 09:31:19 15° SW 09:35:50 46° WNW 09:41:21 10° N
STARLINK-1024 3.8 09:34:08 15° SW 09:37:29 69° SE 09:41:37 10° NE
IDEFIX/ARIANE 42P 2.7 09:34:05 10° N 09:39:16 61° WNW 09:44:24 10° SSW
Cosmos 1821 Rocket 4.2 09:34:37 10° S 09:40:59 81° E 09:47:16 10° N
STARLINK-1035 3.7 09:38:56 14° SW 09:42:28 77° SE 09:46:37 10° NE
ARIANE 5 R/B 3.6 09:38:36 10° N 09:42:48 28° WNW 09:46:43 11° WSW
ATLAS 5 CENTAUR R/B 1.8 09:39:19 10° SSW 09:43:17 62° ESE 09:47:37 10° NE
Cosmos 158 Rocket 4.4 09:38:29 10° S 09:43:27 62° ESE 09:48:21 10° NNE
Lacrosse 5 rocket 1.3 09:40:12 14° SW 09:43:43 76° NW 09:47:36 10° NE
Meteor 1-26 Rocket 4.4 09:39:36 10° N 09:45:32 87° E 09:51:32 10° S
Cosmos 1461 4.2 09:42:10 10° NNW 09:46:46 52° ENE 09:51:23 10° SE
Cosmos 1151 Rocket 3.3 09:42:55 10° NNW 09:47:09 49° W 09:51:21 10° SSW
STARLINK-1032 3.6 09:43:41 13° SW 09:47:25 85° SE 09:51:34 10° NE
Cosmos 2344 3.6 09:40:46 10° SSW 09:48:28 85° ESE 09:56:12 10° NE
H-2A R/B 2.5 09:44:46 10° S 09:48:56 42° W 09:53:13 10° NNW
STARLINK-1037 3.6 09:46:35 12° SW 09:50:25 89° NW 09:54:33 10° NE
Cosmos 1727 Rocket 4.1 09:45:11 10° NNW 09:51:13 58° W 09:57:15 10° S
deb Chang Zheng 4 3.6 09:47:00 10° NNE 09:51:18 83° ESE 09:55:32 10° SSW
Cosmos 1825 4.3 09:50:00 10° W 09:51:27 12° WNW 09:52:55 10° NW
BREEZE-M R/B 4.4 09:50:06 10° NNW 09:52:23 23° NNE 09:54:25 10° E
STARLINK-1011 3.6 09:48:29 11° SW 09:52:25 87° NW 09:56:34 10° NE
ADEOS 4.4 09:47:27 10° NNE 09:52:33 51° E 09:57:36 10° S
Cosmos 1680 Rocket 3.6 09:49:37 10° SSW 09:54:53 87° WNW 10:00:12 10° NNE
STARLINK-1036 3.7 09:53:16 10° SW 09:57:23 79° NW 10:01:32 10° NE
Cosmos 1844 4.0 09:54:08 10° NW 09:59:41 48° WSW 10:05:10 10° S
CZ-4C R/B 4.0 09:57:01 10° SSW 10:00:14 29° W 10:03:27 10° NW
Cosmos 1515 Rocket 3.6 09:55:58 10° NNW 10:00:17 63° W 10:04:33 10° S
Cosmos 923 Rocket 4.2 09:56:19 10° SSW 10:01:24 56° WNW 10:06:32 10° N
STARLINK-1044 3.7 09:58:14 10° SW 10:02:21 72° NW 10:06:30 10° NE
Shenzhou-11 Module 2.6 09:59:59 10° WNW 10:02:21 45° NNE 10:04:43 10° E
Cosmos 1346 Rocket 2.8 10:00:31 10° S 10:04:30 84° W 10:08:30 10° N
Cosmos 1980 4.0 09:59:24 10° SSW 10:05:01 73° ESE 10:10:40 10° NNE
Meteor 2-3 Rocket 4.2 10:00:11 10° SSW 10:05:29 44° WNW 10:10:49 10° N
STARLINK-1374 4.4 10:02:33 10° NW 10:06:31 55° NE 10:10:27 10° ESE
STARLINK-1047 3.8 10:03:15 10° WSW 10:07:20 65° NW 10:11:28 10° NE
FALCON 9 DEB 3.4 10:05:34 10° WNW 10:08:54 45° SW 10:12:13 10° SSE
STARLINK-1339 4.2 10:05:27 10° NW 10:09:18 58° NE 10:13:09 10° ESE
